| time (UTC) | temp F | wind direction | speed knots | gust knots | rain 1hr in | rain 24hr in | rain mn in | humidity % | barometer mb |
| 20260901010058 | 67 | 145 | 0.0 | 0.0 | 0.00 | 0.02 | 0.02 | 95 | 1019.2 |
| 20260901005554 | 67 | 145 | 0.0 | 0.0 | 0.00 | 0.02 | 0.02 | 95 | 1019.1 |
| 20260901005054 | 67 | 145 | 0.0 | 0.0 | 0.00 | 0.02 | 0.02 | 95 | 1019.0 |
| 20260901004555 | 68 | 145 | 0.0 | 0.9 | 0.00 | 0.02 | 0.02 | 95 | 1018.9 |
| 20260901004053 | 68 | 145 | 0.0 | 0.9 | 0.00 | 0.02 | 0.02 | 95 | 1019.0 |
| 20260901003553 | 68 | 145 | 0.0 | 0.9 | 0.00 | 0.02 | 0.02 | 95 | 1018.9 |
| 20260901003053 | 68 | 145 | 0.0 | 0.9 | 0.00 | 0.02 | 0.02 | 94 | 1018.9 |
| 20260901002553 | 68 | 114 | 0.0 | 0.9 | 0.00 | 0.02 | 0.02 | 94 | 1018.8 |
| 20260901002057 | 68 | 114 | 0.0 | 0.9 | 0.00 | 0.02 | 0.02 | 94 | 1018.8 |
| 20260901001555 | 68 | 114 | 0.0 | 0.9 | 0.00 | 0.02 | 0.02 | 94 | 1018.7 |
| 20260901001052 | 69 | 143 | 0.0 | 1.7 | 0.00 | 0.02 | 0.02 | 94 | 1018.7 |
| 20260901000551 | 69 | 141 | 0.0 | 0.9 | 0.00 | 0.02 | 0.02 | 93 | 1018.7 |
| 20260901000059 | 69 | 121 | 0.0 | 0.0 | 0.00 | 0.02 | 0.02 | 93 | 1018.6 |
| 20260831235552 | 69 | 121 | 0.0 | 0.0 | 0.00 | 0.02 | 0.02 | 93 | 1018.6 |
| 20260831235052 | 70 | 122 | 0.0 | 0.9 | 0.00 | 0.02 | 0.02 | 93 | 1018.6 |
| 20260831234551 | 70 | 121 | 0.0 | 0.9 | 0.01 | 0.02 | 0.02 | 93 | 1018.6 |
| 20260831234053 | 70 | 204 | 0.0 | 0.0 | 0.01 | 0.02 | 0.02 | 93 | 1018.7 |
| 20260831233550 | 70 | 204 | 0.0 | 0.0 | 0.01 | 0.02 | 0.02 | 93 | 1018.7 |
| 20260831233051 | 70 | 204 | 0.0 | 0.0 | 0.01 | 0.02 | 0.02 | 92 | 1018.8 |
| 20260831232553 | 70 | 204 | 0.0 | 0.0 | 0.01 | 0.02 | 0.02 | 92 | 1018.8 |
| 20260831232051 | 71 | 203 | 0.0 | 0.0 | 0.01 | 0.02 | 0.02 | 92 | 1018.8 |
| 20260831231551 | 71 | 203 | 0.0 | 0.0 | 0.01 | 0.02 | 0.02 | 91 | 1018.9 |
| 20260831231050 | 71 | 204 | 0.0 | 0.0 | 0.01 | 0.02 | 0.02 | 91 | 1018.9 |
| 20260831230550 | 71 | 224 | 0.0 | 0.0 | 0.01 | 0.02 | 0.02 | 91 | 1018.9 |
| 20260831230050 | 71 | 238 | 0.0 | 1.7 | 0.01 | 0.02 | 0.02 | 88 | 1018.9 |
| 20260831225548 | 72 | 238 | 0.0 | 1.7 | 0.01 | 0.02 | 0.02 | 89 | 1019.0 |
| 20260831225049 | 72 | 214 | 0.0 | 0.9 | 0.01 | 0.02 | 0.02 | 89 | 1019.0 |
| 20260831224549 | 72 | 344 | 0.0 | 2.6 | 0.00 | 0.01 | 0.01 | 86 | 1019.0 |
| 20260831224049 | 73 | 81 | 0.0 | 5.2 | 0.00 | 0.01 | 0.01 | 85 | 1019.0 |
| 20260831223550 | 75 | 8 | 2.6 | 9.6 | 0.00 | 0.01 | 0.01 | 83 | 1019.1 |
| 20260831223049 | 77 | 358 | 3.5 | 9.6 | 0.00 | 0.01 | 0.01 | 80 | 1019.0 |
| 20260831222549 | 78 | 219 | 0.0 | 0.9 | 0.00 | 0.01 | 0.01 | 76 | 1018.9 |
| 20260831222048 | 79 | 219 | 0.0 | 0.9 | 0.00 | 0.01 | 0.01 | 72 | 1018.9 |
| 20260831221548 | 80 | 219 | 0.0 | 0.9 | 0.00 | 0.01 | 0.01 | 71 | 1018.8 |
| 20260831221048 | 80 | 219 | 0.0 | 3.5 | 0.00 | 0.01 | 0.01 | 71 | 1018.6 |
| 20260831220547 | 80 | 214 | 0.0 | 4.3 | 0.00 | 0.01 | 0.01 | 73 | 1018.5 |
| 20260831220046 | 80 | 180 | 0.9 | 4.3 | 0.00 | 0.01 | 0.01 | 71 | 1018.7 |
| 20260831215546 | 80 | 200 | 0.0 | 2.6 | 0.00 | 0.01 | 0.01 | 73 | 1018.7 |
| 20260831215046 | 80 | 162 | 0.9 | 4.3 | 0.00 | 0.01 | 0.01 | 74 | 1018.6 |
| 20260831214546 | 80 | 174 | 0.9 | 4.3 | 0.00 | 0.01 | 0.01 | 73 | 1018.7 |
| 20260831214048 | 80 | 189 | 0.9 | 4.3 | 0.00 | 0.01 | 0.01 | 73 | 1018.7 |
| 20260831213545 | 80 | 185 | 0.9 | 1.7 | 0.00 | 0.01 | 0.01 | 70 | 1018.7 |
| 20260831213045 | 79 | 200 | 0.0 | 1.7 | 0.00 | 0.01 | 0.01 | 70 | 1018.8 |
| 20260831212545 | 79 | 187 | 0.0 | 2.6 | 0.00 | 0.01 | 0.01 | 71 | 1018.9 |
| 20260831212045 | 80 | 203 | 0.9 | 3.5 | 0.00 | 0.01 | 0.01 | 70 | 1018.8 |
| 20260831211551 | 81 | 156 | 0.9 | 2.6 | 0.00 | 0.01 | 0.01 | 69 | 1018.8 |
| 20260831211044 | 81 | 215 | 0.9 | 2.6 | 0.00 | 0.01 | 0.01 | 67 | 1018.7 |
| 20260831210542 | 81 | 181 | 0.0 | 1.7 | 0.00 | 0.01 | 0.01 | 66 | 1018.7 |
| 20260831210043 | 81 | 161 | 0.0 | 1.7 | 0.00 | 0.01 | 0.01 | 66 | 1018.7 |
| 20260831205546 | 81 | 175 | 0.0 | 2.6 | 0.00 | 0.01 | 0.01 | 68 | 1018.7 |
| 20260831205043 | 80 | 173 | 0.9 | 2.6 | 0.00 | 0.01 | 0.01 | 72 | 1018.8 |
| 20260831204542 | 80 | 226 | 0.9 | 3.5 | 0.00 | 0.01 | 0.01 | 71 | 1018.7 |
| 20260831204042 | 80 | 195 | 0.0 | 3.5 | 0.00 | 0.01 | 0.01 | 70 | 1018.7 |
| 20260831203541 | 80 | 226 | 0.9 | 3.5 | 0.00 | 0.01 | 0.01 | 69 | 1018.8 |
| 20260831203041 | 80 | 159 | 0.9 | 2.6 | 0.00 | 0.01 | 0.01 | 69 | 1018.8 |
| 20260831202540 | 80 | 214 | 0.0 | 2.6 | 0.00 | 0.01 | 0.01 | 70 | 1018.9 |
| 20260831202040 | 80 | 160 | 0.9 | 2.6 | 0.00 | 0.01 | 0.01 | 71 | 1019.0 |
| 20260831201540 | 80 | 168 | 0.9 | 2.6 | 0.00 | 0.01 | 0.01 | 71 | 1019.1 |
| 20260831201041 | 79 | 151 | 0.9 | 3.5 | 0.00 | 0.01 | 0.01 | 72 | 1019.2 |
| 20260831200537 | 78 | 197 | 0.0 | 3.5 | 0.00 | 0.01 | 0.01 | 73 | 1019.1 |
| 20260831200038 | 77 | 205 | 0.0 | 2.6 | 0.00 | 0.01 | 0.01 | 76 | 1019.2 |
| 20260831195537 | 76 | 171 | 0.0 | 3.5 | 0.00 | 0.01 | 0.01 | 77 | 1019.3 |
| 20260831195039 | 76 | 190 | 0.9 | 2.6 | 0.00 | 0.01 | 0.01 | 79 | 1019.4 |
| 20260831194549 | 76 | 166 | 0.0 | 6.1 | 0.00 | 0.01 | 0.01 | 79 | 1019.4 |
| 20260831194038 | 76 | 190 | 0.0 | 7.0 | 0.00 | 0.01 | 0.01 | 79 | 1019.4 |
| 20260831193536 | 77 | 245 | 1.7 | 7.0 | 0.00 | 0.01 | 0.01 | 77 | 1019.5 |
| 20260831193035 | 78 | 142 | 0.9 | 4.3 | 0.00 | 0.01 | 0.01 | 77 | 1019.6 |
| 20260831192535 | 78 | 120 | 0.9 | 5.2 | 0.00 | 0.01 | 0.01 | 75 | 1019.6 |
| 20260831192034 | 79 | 190 | 0.0 | 7.0 | 0.00 | 0.01 | 0.01 | 73 | 1019.7 |
| 20260831191536 | 80 | 149 | 0.0 | 7.0 | 0.00 | 0.01 | 0.01 | 70 | 1019.7 |
| 20260831191039 | 81 | 192 | 0.9 | 5.2 | 0.00 | 0.01 | 0.01 | 69 | 1019.7 |
| 20260831190534 | 81 | 124 | 0.0 | 1.7 | 0.00 | 0.01 | 0.01 | 66 | 1019.7 |
| 20260831190034 | 82 | 178 | 0.0 | 1.7 | 0.00 | 0.01 | 0.01 | 65 | 1019.8 |
| 20260831185534 | 82 | 191 | 0.0 | 2.6 | 0.00 | 0.01 | 0.01 | 66 | 1019.8 |
| 20260831185034 | 82 | 240 | 0.9 | 2.6 | 0.00 | 0.01 | 0.01 | 66 | 1019.8 |
| 20260831184533 | 81 | 166 | 0.0 | 0.9 | 0.00 | 0.01 | 0.01 | 67 | 1019.7 |
| 20260831184032 | 80 | 153 | 0.0 | 0.9 | 0.00 | 0.01 | 0.01 | 68 | 1019.8 |
| 20260831183532 | 80 | 144 | 0.0 | 1.7 | 0.00 | 0.01 | 0.01 | 67 | 1019.8 |
| 20260831183032 | 80 | 127 | 0.0 | 2.6 | 0.00 | 0.01 | 0.01 | 67 | 1019.8 |
| 20260831182532 | 79 | 198 | 0.0 | 2.6 | 0.00 | 0.01 | 0.01 | 66 | 1019.7 |
| 20260831182035 | 79 | 105 | 0.0 | 2.6 | 0.00 | 0.01 | 0.01 | 66 | 1019.7 |
| 20260831181532 | 80 | 150 | 0.0 | 4.3 | 0.00 | 0.01 | 0.01 | 65 | 1019.7 |
| 20260831181031 | 81 | 51 | 0.0 | 5.2 | 0.00 | 0.01 | 0.01 | 62 | 1019.7 |
| 20260831180530 | 82 | 338 | 0.0 | 4.3 | 0.00 | 0.01 | 0.01 | 59 | 1019.7 |
| 20260831180030 | 82 | 53 | 0.9 | 4.3 | 0.00 | 0.01 | 0.01 | 60 | 1019.8 |
| 20260831175530 | 81 | 127 | 0.0 | 4.3 | 0.00 | 0.01 | 0.01 | 63 | 1019.9 |
| 20260831175030 | 81 | 350 | 0.9 | 4.3 | 0.00 | 0.01 | 0.01 | 62 | 1020.0 |
| 20260831174532 | 81 | 354 | 0.9 | 2.6 | 0.00 | 0.01 | 0.01 | 64 | 1020.1 |
| 20260831174029 | 80 | 20 | 0.0 | 3.5 | 0.00 | 0.01 | 0.01 | 68 | 1020.1 |
| 20260831173530 | 79 | 20 | 0.0 | 3.5 | 0.00 | 0.01 | 0.01 | 67 | 1020.2 |
| 20260831173028 | 79 | 84 | 0.0 | 3.5 | 0.00 | 0.01 | 0.01 | 67 | 1020.1 |
| 20260831172529 | 79 | 343 | 1.7 | 6.1 | 0.00 | 0.01 | 0.01 | 66 | 1020.1 |
| 20260831172029 | 79 | 48 | 0.0 | 6.1 | 0.00 | 0.01 | 0.01 | 68 | 1020.2 |
| 20260831171528 | 79 | 346 | 1.7 | 5.2 | 0.00 | 0.01 | 0.01 | 67 | 1020.4 |
| 20260831171028 | 79 | 9 | 0.9 | 5.2 | 0.00 | 0.01 | 0.01 | 66 | 1020.4 |
| 20260831170527 | 79 | 357 | 0.0 | 5.2 | 0.00 | 0.01 | 0.01 | 66 | 1020.4 |
| 20260831170027 | 80 | 20 | 0.9 | 5.2 | 0.00 | 0.01 | 0.01 | 65 | 1020.3 |
| 20260831165527 | 81 | 79 | 0.0 | 2.6 | 0.00 | 0.01 | 0.01 | 66 | 1020.3 |
| 20260831165026 | 81 | 8 | 0.9 | 2.6 | 0.00 | 0.01 | 0.01 | 63 | 1020.3 |
| 20260831164526 | 81 | 115 | 0.0 | 0.9 | 0.00 | 0.01 | 0.01 | 68 | 1020.4 |
| 20260831164026 | 81 | 115 | 0.0 | 2.6 | 0.00 | 0.01 | 0.01 | 63 | 1020.4 |
| 20260831163526 | 81 | 9 | 0.0 | 5.2 | 0.00 | 0.01 | 0.01 | 62 | 1020.4 |
| 20260831163030 | 83 | 334 | 1.7 | 5.2 | 0.00 | 0.01 | 0.01 | 58 | 1020.4 |
| 20260831162525 | 84 | 348 | 0.0 | 1.7 | 0.00 | 0.01 | 0.01 | 61 | 1020.4 |
| 20260831162023 | 83 | 76 | 0.0 | 5.2 | 0.00 | 0.01 | 0.01 | 63 | 1020.4 |
| 20260831161530 | 83 | 23 | 1.7 | 5.2 | 0.00 | 0.01 | 0.01 | 57 | 1020.5 |
| 20260831161023 | 82 | 108 | 0.0 | 1.7 | 0.00 | 0.01 | 0.01 | 63 | 1020.5 |
| 20260831160523 | 81 | 340 | 0.0 | 2.6 | 0.00 | 0.01 | 0.01 | 64 | 1020.6 |
| 20260831160022 | 81 | 340 | 0.0 | 2.6 | 0.00 | 0.01 | 0.01 | 61 | 1020.6 |
| 20260831155523 | 82 | 359 | 0.0 | 1.7 | 0.00 | 0.01 | 0.01 | 61 | 1020.6 |
| 20260831155022 | 83 | 271 | 0.0 | 0.9 | 0.00 | 0.01 | 0.01 | 59 | 1020.6 |
| 20260831154520 | 82 | 252 | 0.0 | 0.9 | 0.00 | 0.01 | 0.01 | 63 | 1020.6 |
| 20260831154023 | 80 | 315 | 0.0 | 3.5 | 0.00 | 0.01 | 0.01 | 65 | 1020.7 |
| 20260831153520 | 79 | 274 | 0.0 | 3.5 | 0.00 | 0.01 | 0.01 | 68 | 1020.7 |
| 20260831153019 | 79 | 338 | 0.0 | 5.2 | 0.00 | 0.01 | 0.01 | 67 | 1020.7 |
| 20260831152519 | 79 | 7 | 1.7 | 5.2 | 0.00 | 0.01 | 0.01 | 65 | 1020.6 |
| 20260831152021 | 79 | 51 | 0.0 | 5.2 | 0.00 | 0.01 | 0.01 | 68 | 1020.6 |
| 20260831151521 | 78 | 43 | 0.0 | 5.2 | 0.00 | 0.01 | 0.01 | 67 | 1020.7 |
| 20260831151020 | 78 | 8 | 1.7 | 4.3 | 0.00 | 0.01 | 0.01 | 66 | 1020.6 |
| 20260831150517 | 78 | 344 | 0.9 | 5.2 | 0.00 | 0.01 | 0.01 | 66 | 1020.6 |
| 20260831150016 | 78 | 1 | 0.0 | 6.1 | 0.00 | 0.01 | 0.01 | 66 | 1020.6 |
| 20260831145516 | 79 | 343 | 1.7 | 6.1 | 0.00 | 0.01 | 0.01 | 67 | 1020.5 |
| 20260831145016 | 79 | 352 | 0.0 | 2.6 | 0.00 | 0.01 | 0.01 | 71 | 1020.5 |
| 20260831144515 | 79 | 1 | 0.9 | 2.6 | 0.00 | 0.01 | 0.01 | 71 | 1020.5 |
| 20260831144015 | 79 | 11 | 0.0 | 1.7 | 0.00 | 0.01 | 0.01 | 71 | 1020.4 |
| 20260831143515 | 80 | 349 | 0.0 | 1.7 | 0.00 | 0.01 | 0.01 | 70 | 1020.5 |
| 20260831143014 | 82 | 1 | 0.0 | 0.9 | 0.00 | 0.01 | 0.01 | 69 | 1020.5 |
| 20260831142516 | 81 | 221 | 0.0 | 0.9 | 0.00 | 0.01 | 0.01 | 71 | 1020.4 |
| 20260831142010 | 80 | 221 | 0.0 | 0.0 | 0.01 | 0.01 | 0.01 | 74 | 1020.4 |
| 20260831141510 | 79 | 221 | 0.0 | 0.9 | 0.01 | 0.01 | 0.01 | 75 | 1020.4 |
| 20260831141008 | 78 | 221 | 0.0 | 0.9 | 0.01 | 0.01 | 0.01 | 78 | 1020.3 |
| 20260831140510 | 77 | 221 | 0.0 | 0.9 | 0.01 | 0.01 | 0.01 | 78 | 1020.4 |
| 20260831140005 | 77 | 221 | 0.0 | 0.9 | 0.01 | 0.01 | 0.01 | 78 | 1020.5 |
| 20260831135504 | 77 | 221 | 0.0 | 0.0 | 0.01 | 0.01 | 0.01 | 81 | 1020.5 |
| 20260831135003 | 76 | 221 | 0.0 | 0.0 | 0.01 | 0.01 | 0.01 | 83 | 1020.5 |
| 20260831134502 | 74 | 221 | 0.0 | 0.9 | 0.01 | 0.01 | 0.01 | 85 | 1020.6 |
| 20260831134059 | 74 | 221 | 0.0 | 0.9 | 0.01 | 0.01 | 0.01 | 87 | 1020.6 |
| 20260831133558 | 73 | 222 | 0.0 | 0.9 | 0.01 | 0.01 | 0.01 | 88 | 1020.7 |
| 20260831133057 | 73 | 221 | 0.0 | 0.9 | 0.01 | 0.01 | 0.01 | 91 | 1020.7 |
| 20260831132556 | 72 | 221 | 0.0 | 0.9 | 0.01 | 0.01 | 0.01 | 93 | 1020.7 |
| 20260831132055 | 70 | 221 | 0.0 | 0.0 | 0.00 | 0.00 | 0.00 | 95 | 1020.8 |
| 20260831131556 | 68 | 222 | 0.0 | 0.0 | 0.00 | 0.00 | 0.00 | 96 | 1020.8 |
| 20260831131053 | 68 | 221 | 0.0 | 0.0 | 0.00 | 0.00 | 0.00 | 96 | 1020.8 |
| 20260831130551 | 68 | 221 | 0.0 | 0.0 | 0.00 | 0.00 | 0.00 | 96 | 1020.8 |
| 20260831130104 | 68 | 221 | 0.0 | 0.0 | 0.00 | 0.00 | 0.00 | 96 | 1020.8 |
| 20260831125549 | 67 | 221 | 0.0 | 0.0 | 0.00 | 0.00 | 0.00 | 96 | 1020.8 |
| 20260831125048 | 66 | 221 | 0.0 | 0.0 | 0.00 | 0.00 | 0.00 | 96 | 1020.7 |
| 20260831124547 | 66 | 221 | 0.0 | 0.0 | 0.00 | 0.00 | 0.00 | 96 | 1020.8 |
| 20260831124046 | 65 | 221 | 0.0 | 0.0 | 0.00 | 0.00 | 0.00 | 96 | 1020.7 |
| 20260831123546 | 64 | 221 | 0.0 | 0.0 | 0.00 | 0.00 | 0.00 | 96 | 1020.6 |
| 20260831123045 | 63 | 221 | 0.0 | 0.0 | 0.00 | 0.00 | 0.00 | 96 | 1020.7 |
| 20260831122544 | 62 | 222 | 0.0 | 0.0 | 0.00 | 0.00 | 0.00 | 96 | 1020.6 |
| 20260831122048 | 61 | 221 | 0.0 | 0.0 | 0.00 | 0.00 | 0.00 | 96 | 1020.6 |
| 20260831121545 | 60 | 222 | 0.0 | 0.0 | 0.00 | 0.00 | 0.00 | 96 | 1020.7 |
| 20260831121044 | 60 | 222 | 0.0 | 0.0 | 0.00 | 0.00 | 0.00 | 96 | 1020.7 |
| 20260831120544 | 60 | 222 | 0.0 | 0.0 | 0.00 | 0.00 | 0.00 | 96 | 1020.6 |
| 20260831120044 | 60 | 221 | 0.0 | 0.0 | 0.00 | 0.00 | 0.00 | 96 | 1020.8 |
| 20260831115543 | 59 | 222 | 0.0 | 0.0 | 0.00 | 0.00 | 0.00 | 96 | 1020.7 |
| 20260831115043 | 59 | 222 | 0.0 | 0.0 | 0.00 | 0.00 | 0.00 | 96 | 1020.8 |
| 20260831114543 | 59 | 221 | 0.0 | 0.0 | 0.00 | 0.00 | 0.00 | 96 | 1020.7 |
| 20260831114043 | 59 | 221 | 0.0 | 0.0 | 0.00 | 0.00 | 0.00 | 96 | 1020.6 |
| 20260831113542 | 59 | 222 | 0.0 | 0.0 | 0.00 | 0.00 | 0.00 | 96 | 1020.7 |
| 20260831113041 | 59 | 221 | 0.0 | 0.0 | 0.00 | 0.00 | 0.00 | 96 | 1020.6 |
| 20260831112541 | 59 | 222 | 0.0 | 0.0 | 0.00 | 0.00 | 0.00 | 96 | 1020.6 |
| 20260831112040 | 59 | 222 | 0.0 | 0.0 | 0.00 | 0.00 | 0.00 | 96 | 1020.6 |
| 20260831111540 | 59 | 221 | 0.0 | 0.0 | 0.00 | 0.00 | 0.00 | 96 | 1020.5 |
| 20260831111039 | 59 | 221 | 0.0 | 0.0 | 0.00 | 0.00 | 0.00 | 96 | 1020.3 |
| 20260831110538 | 59 | 222 | 0.0 | 0.0 | 0.00 | 0.00 | 0.00 | 96 | 1020.4 |
| 20260831110040 | 59 | 222 | 0.0 | 0.0 | 0.00 | 0.00 | 0.00 | 96 | 1020.3 |
| 20260831105541 | 59 | 221 | 0.0 | 0.0 | 0.00 | 0.00 | 0.00 | 96 | 1020.2 |
| 20260831105109 | 59 | 221 | 0.0 | 0.0 | 0.00 | 0.00 | 0.00 | 96 | 1020.3 |
| 20260831104540 | 59 | 222 | 0.0 | 0.0 | 0.00 | 0.00 | 0.00 | 96 | 1020.1 |
| 20260831104036 | 59 | 221 | 0.0 | 0.0 | 0.00 | 0.00 | 0.00 | 96 | 1020.0 |
| 20260831103536 | 59 | 221 | 0.0 | 0.0 | 0.00 | 0.00 | 0.00 | 96 | 1020.0 |
| 20260831103039 | 60 | 221 | 0.0 | 0.0 | 0.00 | 0.00 | 0.00 | 96 | 1019.9 |
| 20260831102535 | 60 | 221 | 0.0 | 0.0 | 0.00 | 0.00 | 0.00 | 96 | 1019.9 |
| 20260831102036 | 60 | 222 | 0.0 | 0.0 | 0.00 | 0.00 | 0.00 | 96 | 1019.9 |
| 20260831101535 | 60 | 221 | 0.0 | 0.0 | 0.00 | 0.00 | 0.00 | 96 | 1019.9 |
| 20260831101034 | 60 | 222 | 0.0 | 0.0 | 0.00 | 0.00 | 0.00 | 96 | 1019.8 |
| 20260831100534 | 60 | 221 | 0.0 | 0.0 | 0.00 | 0.00 | 0.00 | 96 | 1019.7 |
| 20260831100033 | 60 | 222 | 0.0 | 0.0 | 0.00 | 0.00 | 0.00 | 96 | 1019.8 |
| 20260831095532 | 60 | 221 | 0.0 | 0.0 | 0.00 | 0.00 | 0.00 | 96 | 1019.6 |
| 20260831095032 | 60 | 221 | 0.0 | 0.0 | 0.00 | 0.00 | 0.00 | 96 | 1019.6 |
| 20260831094532 | 60 | 221 | 0.0 | 0.0 | 0.00 | 0.00 | 0.00 | 96 | 1019.6 |
| 20260831094031 | 60 | 222 | 0.0 | 0.0 | 0.00 | 0.00 | 0.00 | 96 | 1019.5 |
| 20260831093531 | 61 | 222 | 0.0 | 0.0 | 0.00 | 0.00 | 0.00 | 96 | 1019.5 |
| 20260831093030 | 60 | 222 | 0.0 | 0.0 | 0.00 | 0.00 | 0.00 | 96 | 1019.5 |
| 20260831092533 | 61 | 221 | 0.0 | 0.0 | 0.00 | 0.00 | 0.00 | 96 | 1019.5 |
| 20260831092030 | 61 | 221 | 0.0 | 0.0 | 0.00 | 0.00 | 0.00 | 96 | 1019.6 |
| 20260831091530 | 61 | 222 | 0.0 | 0.0 | 0.00 | 0.00 | 0.00 | 96 | 1019.5 |
| 20260831091030 | 61 | 222 | 0.0 | 0.0 | 0.00 | 0.00 | 0.00 | 96 | 1019.5 |
| 20260831090529 | 61 | 222 | 0.0 | 0.0 | 0.00 | 0.00 | 0.00 | 96 | 1019.5 |
| 20260831090033 | 61 | 222 | 0.0 | 0.0 | 0.00 | 0.00 | 0.00 | 96 | 1019.5 |
| 20260831085528 | 61 | 221 | 0.0 | 0.0 | 0.00 | 0.00 | 0.00 | 96 | 1019.5 |
| 20260831085027 | 61 | 221 | 0.0 | 0.0 | 0.00 | 0.00 | 0.00 | 96 | 1019.5 |
| 20260831084527 | 61 | 222 | 0.0 | 0.0 | 0.00 | 0.00 | 0.00 | 96 | 1019.4 |
| 20260831084027 | 61 | 222 | 0.0 | 0.0 | 0.00 | 0.00 | 0.00 | 96 | 1019.5 |
| 20260831083526 | 61 | 221 | 0.0 | 0.0 | 0.00 | 0.00 | 0.00 | 96 | 1019.5 |
| 20260831083036 | 61 | 222 | 0.0 | 0.0 | 0.00 | 0.00 | 0.00 | 96 | 1019.5 |
| 20260831082525 | 62 | 222 | 0.0 | 0.0 | 0.00 | 0.00 | 0.00 | 96 | 1019.6 |
| 20260831082029 | 62 | 222 | 0.0 | 0.0 | 0.00 | 0.00 | 0.00 | 96 | 1019.5 |
| 20260831081525 | 62 | 222 | 0.0 | 0.0 | 0.00 | 0.00 | 0.00 | 96 | 1019.5 |
| 20260831081026 | 62 | 222 | 0.0 | 0.0 | 0.00 | 0.00 | 0.00 | 96 | 1019.5 |
| 20260831080523 | 62 | 221 | 0.0 | 0.0 | 0.00 | 0.00 | 0.00 | 96 | 1019.6 |
| 20260831080022 | 62 | 222 | 0.0 | 0.0 | 0.00 | 0.00 | 0.00 | 96 | 1019.6 |
| 20260831075522 | 62 | 221 | 0.0 | 0.0 | 0.00 | 0.00 | 0.00 | 96 | 1019.6 |
| 20260831075021 | 62 | 221 | 0.0 | 0.0 | 0.00 | 0.00 | 0.00 | 96 | 1019.6 |
| 20260831074521 | 62 | 222 | 0.0 | 0.0 | 0.00 | 0.00 | 0.00 | 96 | 1019.6 |
| 20260831074021 | 62 | 221 | 0.0 | 0.0 | 0.00 | 0.00 | 0.00 | 96 | 1019.7 |
| 20260831073521 | 62 | 221 | 0.0 | 0.0 | 0.00 | 0.00 | 0.00 | 96 | 1019.7 |
| 20260831073019 | 63 | 221 | 0.0 | 0.0 | 0.00 | 0.00 | 0.00 | 96 | 1019.7 |
| 20260831072519 | 63 | 221 | 0.0 | 0.0 | 0.00 | 0.00 | 0.00 | 96 | 1019.6 |
| 20260831072019 | 63 | 222 | 0.0 | 0.0 | 0.00 | 0.00 | 0.00 | 96 | 1019.8 |
| 20260831071519 | 63 | 221 | 0.0 | 0.0 | 0.00 | 0.00 | 0.00 | 96 | 1019.7 |
| 20260831071019 | 63 | 222 | 0.0 | 0.0 | 0.00 | 0.00 | 0.00 | 96 | 1019.7 |
| 20260831070519 | 63 | 222 | 0.0 | 0.0 | 0.00 | 0.00 | 0.00 | 96 | 1019.7 |
| 20260831070025 | 63 | 221 | 0.0 | 0.0 | 0.00 | 0.00 | 0.00 | 96 | 1019.7 |
| 20260831065620 | 63 | 221 | 0.0 | 0.0 | 0.00 | 0.00 | 0.00 | 96 | 1019.7 |
| 20260831065016 | 63 | 222 | 0.0 | 0.0 | 0.00 | 0.00 | 0.00 | 96 | 1019.8 |
| 20260831064518 | 63 | 221 | 0.0 | 0.0 | 0.00 | 0.00 | 0.00 | 96 | 1019.8 |
| 20260831064017 | 63 | 221 | 0.0 | 0.0 | 0.00 | 0.00 | 0.00 | 96 | 1019.8 |
| 20260831063516 | 63 | 221 | 0.0 | 0.0 | 0.00 | 0.00 | 0.00 | 96 | 1019.8 |
| 20260831063016 | 63 | 221 | 0.0 | 0.0 | 0.00 | 0.00 | 0.00 | 96 | 1019.8 |
| 20260831062515 | 63 | 221 | 0.0 | 0.0 | 0.00 | 0.00 | 0.00 | 96 | 1020.0 |
| 20260831062015 | 63 | 221 | 0.0 | 0.0 | 0.00 | 0.00 | 0.00 | 96 | 1019.9 |
| 20260831061515 | 63 | 222 | 0.0 | 0.0 | 0.00 | 0.00 | 0.00 | 96 | 1019.9 |
| 20260831061013 | 63 | 222 | 0.0 | 0.0 | 0.00 | 0.00 | 0.00 | 96 | 1019.9 |
| 20260831060512 | 63 | 222 | 0.0 | 0.0 | 0.00 | 0.00 | 0.00 | 96 | 1019.8 |
| 20260831060012 | 63 | 222 | 0.0 | 0.0 | 0.00 | 0.00 | 0.00 | 96 | 1020.0 |
| 20260831055511 | 63 | 222 | 0.0 | 0.0 | 0.00 | 0.00 | 0.00 | 96 | 1020.1 |
| 20260831055011 | 63 | 221 | 0.0 | 0.0 | 0.00 | 0.00 | 0.00 | 96 | 1020.1 |
| 20260831054511 | 64 | 221 | 0.0 | 0.0 | 0.00 | 0.00 | 0.00 | 96 | 1020.2 |
| 20260831054012 | 63 | 222 | 0.0 | 0.0 | 0.00 | 0.00 | 0.00 | 96 | 1020.2 |
| 20260831053509 | 63 | 221 | 0.0 | 0.0 | 0.00 | 0.00 | 0.00 | 96 | 1020.3 |
| 20260831053010 | 63 | 221 | 0.0 | 0.0 | 0.00 | 0.00 | 0.00 | 96 | 1020.2 |
| 20260831052509 | 63 | 222 | 0.0 | 0.0 | 0.00 | 0.00 | 0.00 | 96 | 1020.1 |
| 20260831052008 | 63 | 221 | 0.0 | 0.0 | 0.00 | 0.00 | 0.00 | 96 | 1020.2 |
| 20260831051509 | 63 | 221 | 0.0 | 0.0 | 0.00 | 0.00 | 0.00 | 96 | 1020.3 |
| 20260831051008 | 63 | 222 | 0.0 | 0.0 | 0.00 | 0.00 | 0.00 | 96 | 1020.3 |
| 20260831050507 | 64 | 221 | 0.0 | 0.0 | 0.00 | 0.00 | 0.00 | 96 | 1020.1 |
| 20260831050006 | 64 | 221 | 0.0 | 0.0 | 0.00 | 0.00 | 0.00 | 96 | 1020.2 |
| 20260831045509 | 64 | 221 | 0.0 | 0.0 | 0.00 | 0.00 | 0.00 | 96 | 1020.0 |
| 20260831045007 | 64 | 222 | 0.0 | 0.0 | 0.00 | 0.00 | 0.00 | 96 | 1020.1 |
| 20260831044506 | 64 | 222 | 0.0 | 0.0 | 0.00 | 0.00 | 0.00 | 96 | 1019.9 |
| 20260831044005 | 64 | 221 | 0.0 | 0.0 | 0.00 | 0.00 | 0.00 | 96 | 1020.1 |
| 20260831043507 | 64 | 222 | 0.0 | 0.0 | 0.00 | 0.00 | 0.00 | 96 | 1020.0 |
| 20260831043005 | 64 | 221 | 0.0 | 0.0 | 0.00 | 0.00 | 0.00 | 96 | 1020.1 |
| 20260831042507 | 64 | 222 | 0.0 | 0.0 | 0.00 | 0.00 | 0.00 | 95 | 1020.3 |
| 20260831042003 | 64 | 222 | 0.0 | 0.0 | 0.00 | 0.00 | 0.00 | 95 | 1020.2 |
| 20260831041502 | 64 | 221 | 0.0 | 0.0 | 0.00 | 0.00 | 0.00 | 96 | 1020.3 |
| 20260831041005 | 64 | 221 | 0.0 | 0.0 | 0.00 | 0.00 | 0.00 | 96 | 1020.3 |
| 20260831040501 | 64 | 221 | 0.0 | 0.0 | 0.00 | 0.00 | 0.00 | 96 | 1020.5 |
| 20260831040100 | 64 | 222 | 0.0 | 0.0 | 0.00 | 0.00 | 0.00 | 96 | 1020.4 |
| 20260831035600 | 64 | 222 | 0.0 | 0.0 | 0.00 | 0.00 | 0.00 | 96 | 1020.4 |
| 20260831035059 | 64 | 221 | 0.0 | 0.0 | 0.00 | 0.00 | 0.00 | 96 | 1020.5 |
| 20260831034600 | 64 | 221 | 0.0 | 0.0 | 0.00 | 0.00 | 0.00 | 96 | 1020.4 |
| 20260831034059 | 64 | 221 | 0.0 | 0.0 | 0.00 | 0.00 | 0.00 | 96 | 1020.5 |
| 20260831033558 | 64 | 222 | 0.0 | 0.0 | 0.00 | 0.00 | 0.00 | 96 | 1020.6 |
| 20260831033058 | 64 | 221 | 0.0 | 0.0 | 0.00 | 0.00 | 0.00 | 96 | 1020.7 |
| 20260831032559 | 65 | 222 | 0.0 | 0.0 | 0.00 | 0.00 | 0.00 | 96 | 1020.6 |
| 20260831032100 | 65 | 221 | 0.0 | 0.0 | 0.00 | 0.00 | 0.00 | 96 | 1020.6 |
| 20260831031559 | 65 | 222 | 0.0 | 0.0 | 0.00 | 0.00 | 0.00 | 96 | 1020.7 |
| 20260831031057 | 65 | 221 | 0.0 | 0.0 | 0.00 | 0.00 | 0.00 | 96 | 1020.8 |
| 20260831030600 | 65 | 221 | 0.0 | 0.0 | 0.00 | 0.00 | 0.00 | 96 | 1020.7 |
| 20260831025557 | 65 | 221 | 0.0 | 0.9 | 0.00 | 0.00 | 0.00 | 96 | 1020.5 |
| 20260831025057 | 65 | 221 | 0.0 | 0.9 | 0.00 | 0.00 | 0.00 | 95 | 1020.5 |
| 20260831024617 | 65 | 221 | 0.0 | 0.9 | 0.00 | 0.00 | 0.00 | 95 | 1020.6 |
| 20260831024056 | 65 | 222 | 0.0 | 0.0 | 0.00 | 0.00 | 0.00 | 95 | 1020.4 |
| 20260831023557 | 65 | 221 | 0.0 | 0.0 | 0.00 | 0.00 | 0.00 | 95 | 1020.4 |
| 20260831023056 | 65 | 221 | 0.0 | 0.0 | 0.00 | 0.00 | 0.00 | 95 | 1020.4 |
| 20260831022556 | 65 | 221 | 0.0 | 0.0 | 0.00 | 0.00 | 0.00 | 95 | 1020.5 |
| 20260831022055 | 65 | 221 | 0.0 | 0.0 | 0.00 | 0.00 | 0.00 | 95 | 1020.4 |
| 20260831021556 | 65 | 221 | 0.0 | 0.0 | 0.00 | 0.00 | 0.00 | 95 | 1020.3 |
| 20260831021055 | 65 | 221 | 0.0 | 0.0 | 0.00 | 0.00 | 0.00 | 95 | 1020.1 |
| 20260831020555 | 66 | 222 | 0.0 | 0.0 | 0.00 | 0.00 | 0.00 | 95 | 1020.1 |
| 20260831020052 | 66 | 221 | 0.0 | 0.0 | 0.00 | 0.00 | 0.00 | 95 | 1020.3 |
| 20260831015550 | 65 | 221 | 0.0 | 0.0 | 0.00 | 0.00 | 0.00 | 95 | 1020.3 |
| 20260831015050 | 66 | 222 | 0.0 | 0.0 | 0.00 | 0.00 | 0.00 | 95 | 1020.5 |
| 20260831014548 | 66 | 221 | 0.0 | 0.0 | 0.00 | 0.00 | 0.00 | 95 | 1020.4 |
| 20260831014049 | 66 | 221 | 0.0 | 0.0 | 0.00 | 0.00 | 0.00 | 95 | 1020.4 |
| 20260831013547 | 66 | 221 | 0.0 | 0.0 | 0.00 | 0.00 | 0.00 | 95 | 1020.3 |
| 20260831013104 | 66 | 221 | 0.0 | 0.0 | 0.00 | 0.00 | 0.00 | 95 | 1020.2 |
| 20260831012547 | 66 | 221 | 0.0 | 0.0 | 0.00 | 0.00 | 0.00 | 94 | 1020.0 |
| 20260831012047 | 66 | 221 | 0.0 | 0.0 | 0.00 | 0.00 | 0.00 | 94 | 1020.2 |
| 20260831011554 | 66 | 221 | 0.0 | 0.0 | 0.00 | 0.00 | 0.00 | 94 | 1020.0 |
| 20260831011046 | 67 | 222 | 0.0 | 0.0 | 0.00 | 0.00 | 0.00 | 94 | 1020.0 |
| 20260831010547 | 67 | 222 | 0.0 | 0.0 | 0.00 | 0.00 | 0.00 | 94 | 1019.9 |